Voltar ao catálogo

CZ-6A DEB

AtivoSSO
NORAD 54613·DEBRIS·🇨🇳 China

Lançado Nov 11, 2022 de Taiyuan Satellite Launch Center

Loading…

Próximas Passagens (próximas 24 horas)

TLE

AtualizadoSource: Space-Track

Época: Sep 14, 2026, 11:04 UTC

1 54613U 22151NP  26257.46115219  .00000168  00000-0  11926-3 0  9998
2 54613  98.8526 253.9863 0052078  70.5602 290.1186 14.09599906196765

Acompanhe CZ-6A DEB em tempo real com AllMySat

Download on the App Store